Weather History for KHOP - February, 2014

Change the Weather History Date:

Thursday, February 27, 2014

  Actual Average Record
Temperature  
Mean Temperature 27 °F -  
Max Temperature 38 °F 51 °F 69 °F (2011)
Min Temperature 16 °F 32 °F 13 °F (2015)
Degree Days  
Heating Degree Days 38    
Moisture  
Dew Point 9 °F    
Average Humidity 52    
Maximum Humidity 74    
Minimum Humidity 29    
Precipitation  
Precipitation 0.00 in - - ()
Sea Level Pressure  
Sea Level Pressure 30.08 in    
Wind  
Wind Speed 9 mph (NW)    
Max Wind Speed 13 mph    
Max Gust Speed 18 mph    
Visibility 10 miles    
Events      
Averages and records for this station are not official NWS values.
T = Trace of Precipitation, MM = Missing Value Source: NWS Daily Summary

Daily Weather History Graph

Daily Weather History Graph

Search for Another Location

Airport or City:

Trip Planner

Search our weather history database for the weather conditions in past years. The results will help you decide how hot, cold, wet, or windy it might be!

Date:

Astronomy

Feb. 27, 2014 Rise Set
Actual Time 6:23 AM CST 5:42 PM CST
Civil Twilight 5:57 AM CST 6:08 PM CST
Nautical Twilight 5:27 AM CST 6:38 PM CST
Astronomical Twilight 4:57 AM CST 7:08 PM CST
Moon 4:53 AM CST (2/27) 4:09 PM CST (2/27)
Length of Visible Light 12h 11m
Length of Day
11h 19m
Waning Crescent, 4% of the Moon is Illuminated
Feb 27
Waning Crescent
Mar 1
New
Mar 8
First Quarter
Mar 16
Full
Mar 23
Last Quarter

Hourly Weather History & Observations

Time (CST) Temp. Windchill Dew Point Humidity Pressure Visibility Wind Dir Wind Speed Gust Speed Precip Events Conditions
12:58 AM 17.1 °F 6.6 °F 7.3 °F 66% 30.04 in 10.0 mi SW 8.1 mph - N/A   Clear
1:58 AM 17.8 °F 6.6 °F 8.6 °F 67% 30.03 in 10.0 mi SW 9.2 mph - N/A   Clear
2:58 AM 16.2 °F 3.9 °F 8.4 °F 72% 30.02 in 10.0 mi SW 10.4 mph - N/A   Clear
3:58 AM 16.5 °F 6.0 °F 9.0 °F 72% 30.02 in 10.0 mi SW 8.1 mph - N/A   Clear
4:58 AM 16.0 °F 4.4 °F 9.0 °F 74% 30.02 in 10.0 mi SW 9.2 mph - N/A   Clear
5:58 AM 16.0 °F 5.3 °F 9.1 °F 74% 30.03 in 10.0 mi WSW 8.1 mph - N/A   Clear
6:58 AM 18.5 °F 8.4 °F 11.3 °F 73% 30.05 in 10.0 mi WSW 8.1 mph - N/A   Clear
7:58 AM 24.8 °F 14.6 °F 13.3 °F 62% 30.07 in 10.0 mi West 10.4 mph - N/A   Clear
8:58 AM 29.8 °F 19.8 °F 13.1 °F 50% 30.08 in 10.0 mi WNW 12.7 mph - N/A   Clear
9:58 AM 32.2 °F 23.8 °F 12.7 °F 45% 30.10 in 10.0 mi NNW 10.4 mph - N/A   Clear
10:58 AM 34.9 °F 27.1 °F 11.8 °F 39% 30.11 in 10.0 mi NNW 10.4 mph - N/A   Clear
11:58 AM 36.0 °F 28.0 °F 10.6 °F 35% 30.10 in 10.0 mi WNW 11.5 mph 18.4 mph N/A   Clear
12:58 PM 36.7 °F 28.9 °F 11.1 °F 35% 30.08 in 10.0 mi WNW 11.5 mph 18.4 mph N/A   Clear
1:58 PM 38.1 °F 33.7 °F 11.3 °F 33% 30.06 in 10.0 mi NW 5.8 mph - N/A   Clear
2:58 PM 38.1 °F 31.7 °F 10.4 °F 32% 30.08 in 10.0 mi NNW 9.2 mph - N/A   Clear
3:58 PM 37.6 °F 32.3 °F 8.1 °F 29% 30.07 in 10.0 mi Variable 6.9 mph - N/A   Clear
4:58 PM 35.4 °F 27.8 °F 7.7 °F 32% 30.07 in 10.0 mi NNE 10.4 mph - N/A   Clear
5:58 PM 28.2 °F 20.2 °F 6.4 °F 40% 30.08 in 10.0 mi NNE 8.1 mph - N/A   Clear
6:58 PM 26.1 °F 16.2 °F 5.2 °F 41% 30.10 in 10.0 mi North 10.4 mph - N/A   Clear
7:58 PM 25.3 °F 16.7 °F 7.2 °F 46% 30.12 in 10.0 mi NNE 8.1 mph - N/A   Clear
8:58 PM 22.3 °F 13.0 °F 9.1 °F 57% 30.15 in 10.0 mi NNE 8.1 mph - N/A   Clear
9:58 PM 21.2 °F 11.7 °F 9.1 °F 60% 30.14 in 10.0 mi NE 8.1 mph - N/A   Clear
10:58 PM 21.0 °F 12.4 °F 7.7 °F 56% 30.14 in 10.0 mi NE 6.9 mph - N/A   Clear
11:58 PM 21.0 °F 14.6 °F 6.3 °F 53% 30.14 in 10.0 mi ENE 4.6 mph - N/A   Clear